STARLINK-35498 (67017 NORAD) Tracking and Keplerian Element Data

This shows tracking and keplerian element data for the satellite.

Feedback or suggestion? Click here.




ElementValue
Catalog67017
NameSTARLINK-35498
Epoch Orbit151
Epoch Day354.25003472
Epoch Year2025
RAAN301.9502
Inclination69.9937
Eccentricity0.0003925
Argument of Perigee271.5205
Mean Anonmoly327.1053
Mean Motion15.92674638
Decay Rate-0.01257011
L11 67017U 25293Q 25354.25003472 -.01257011 46416-3 -36638-2 0 9995
L22 67017 69.9937 301.9502 0003925 271.5205 327.1053 15.92674638 1516



Live tracking and technical data element details for STARLINK-35498 (NORAD 67017). STARLINK-35498 can be tracked NOW for your location showing map with azimuth and elevation plus other details from your city location.







IsCatalogInMostPopularTable: catalog: 67017, numindb: 40
Update: records affected: 1



GetName: 67017 STARLINK-35498

Hit Count: updated at: Tue, 17 Feb 2026 12:23:50 GMT